WON2304 WAHI-WICC

Flight info

Callsign WON2304
Flight time 0h 56m
Altitude 16000
Route CLP
Aircraft AT76/M-SDFGIRY/S

Departure

Time 2026-04-23 10:38
Airport Yogyakarta International Airport (WAHI)

Arrival

Time 2026-04-23 11:35
Airport Husein Sastranegara International Airport (WICC)
Time Latitude Longitude Altitude Speed Heading
2026-04-23 10:31 -7.90163 110.06038 34 ft 0 kts 73°
2026-04-23 10:31 -7.90164 110.06040 34 ft 0 kts 105°
2026-04-23 10:32 -7.90167 110.06041 34 ft 1 kts 144°
2026-04-23 10:32 -7.90185 110.06029 34 ft 6 kts 220°
2026-04-23 10:32 -7.90206 110.06018 34 ft 2 kts 204°
2026-04-23 10:32 -7.90231 110.06008 34 ft 5 kts 201°
2026-04-23 10:33 -7.90254 110.05996 34 ft 2 kts 220°
2026-04-23 10:33 -7.90263 110.05973 34 ft 5 kts 269°
2026-04-23 10:33 -7.90252 110.05947 34 ft 8 kts 296°
2026-04-23 10:33 -7.90215 110.05861 34 ft 12 kts 291°
2026-04-23 10:34 -7.90183 110.05775 34 ft 15 kts 290°
2026-04-23 10:34 -7.90143 110.05668 34 ft 17 kts 290°
2026-04-23 10:34 -7.90100 110.05551 34 ft 18 kts 290°
2026-04-23 10:34 -7.90057 110.05428 34 ft 19 kts 293°
2026-04-23 10:35 -7.90022 110.05347 34 ft 19 kts 290°
2026-04-23 10:35 -7.89976 110.05222 34 ft 19 kts 290°
2026-04-23 10:35 -7.89984 110.05149 34 ft 10 kts 210°
2026-04-23 10:35 -7.90068 110.05117 29 ft 19 kts 200°
2026-04-23 10:36 -7.90101 110.05030 26 ft 14 kts 294°
2026-04-23 10:36 -7.90060 110.04928 28 ft 18 kts 290°
2026-04-23 10:36 -7.90004 110.04774 28 ft 27 kts 289°
2026-04-23 10:36 -7.89946 110.04616 31 ft 21 kts 290°
2026-04-23 10:37 -7.89897 110.04483 30 ft 19 kts 290°
2026-04-23 10:37 -7.89936 110.04418 29 ft 10 kts 169°
2026-04-23 10:37 -7.89984 110.04439 30 ft 7 kts 151°
2026-04-23 10:37 -7.90073 110.04499 30 ft 24 kts 129°
2026-04-23 10:38 -7.90176 110.04745 27 ft 62 kts 110°
2026-04-23 10:38 -7.90392 110.05339 28 ft 115 kts 110°
2026-04-23 10:38 -7.90688 110.06204 240 ft 135 kts 109°
2026-04-23 10:38 -7.90984 110.07099 758 ft 135 kts 112°
2026-04-23 10:39 -7.91491 110.07888 1221 ft 135 kts 140°
2026-04-23 10:39 -7.92374 110.08077 1746 ft 134 kts 187°
2026-04-23 10:39 -7.93322 110.07981 2128 ft 147 kts 183°
2026-04-23 10:39 -7.94403 110.07929 2460 ft 159 kts 181°
2026-04-23 10:40 -7.95514 110.07905 2954 ft 162 kts 179°
2026-04-23 10:40 -7.96646 110.07947 3442 ft 163 kts 175°
2026-04-23 10:40 -7.97780 110.08060 3915 ft 165 kts 172°
2026-04-23 10:40 -7.98917 110.08237 4371 ft 167 kts 169°
2026-04-23 10:41 -8.00080 110.08460 4624 ft 178 kts 168°
2026-04-23 10:41 -8.01353 110.08714 4737 ft 192 kts 168°
2026-04-23 10:41 -8.02670 110.08974 5024 ft 194 kts 169°
2026-04-23 10:41 -8.03996 110.09217 5301 ft 193 kts 175°
2026-04-23 10:42 -8.05259 110.08845 5542 ft 194 kts 221°
2026-04-23 10:42 -8.06111 110.07820 5822 ft 193 kts 238°
2026-04-23 10:42 -8.06492 110.06562 6064 ft 190 kts 278°
2026-04-23 10:42 -8.05919 110.05398 6342 ft 188 kts 313°
2026-04-23 10:43 -8.05036 110.04418 6602 ft 189 kts 312°
2026-04-23 10:43 -8.04176 110.03407 6870 ft 190 kts 312°
2026-04-23 10:43 -8.03324 110.02380 7132 ft 191 kts 308°
2026-04-23 10:43 -8.02552 110.01277 7391 ft 193 kts 303°
2026-04-23 10:44 -8.01882 110.00103 7657 ft 193 kts 298°
2026-04-23 10:44 -8.01308 109.98869 7918 ft 195 kts 294°
2026-04-23 10:44 -8.00805 109.97598 8174 ft 196 kts 292°
2026-04-23 10:44 -8.00326 109.96329 8424 ft 196 kts 292°
2026-04-23 10:45 -7.99846 109.95033 8681 ft 197 kts 291°
2026-04-23 10:45 -7.99374 109.93732 8925 ft 198 kts 291°
2026-04-23 10:45 -7.98886 109.92427 9161 ft 199 kts 292°
2026-04-23 10:45 -7.98386 109.91119 9405 ft 200 kts 292°
2026-04-23 10:46 -7.97883 109.89808 9640 ft 201 kts 292°
2026-04-23 10:46 -7.97375 109.88489 9865 ft 202 kts 292°
2026-04-23 10:46 -7.96868 109.87170 10096 ft 202 kts 292°
2026-04-23 10:46 -7.96355 109.85845 10311 ft 203 kts 292°
2026-04-23 10:47 -7.95843 109.84520 10530 ft 203 kts 292°
2026-04-23 10:47 -7.95329 109.83193 10749 ft 203 kts 292°
2026-04-23 10:47 -7.94814 109.81861 10962 ft 204 kts 292°
2026-04-23 10:47 -7.94300 109.80525 11172 ft 204 kts 292°
2026-04-23 10:48 -7.93783 109.79190 11387 ft 204 kts 292°
2026-04-23 10:48 -7.93265 109.77854 11598 ft 205 kts 292°
2026-04-23 10:48 -7.92748 109.76513 11804 ft 206 kts 292°
2026-04-23 10:48 -7.92227 109.75167 12011 ft 206 kts 292°
2026-04-23 10:49 -7.91712 109.73833 12216 ft 207 kts 292°
2026-04-23 10:49 -7.91190 109.72479 12412 ft 208 kts 292°
2026-04-23 10:49 -7.90665 109.71121 12602 ft 208 kts 291°
2026-04-23 10:49 -7.90140 109.69756 12788 ft 209 kts 292°
2026-04-23 10:50 -7.89609 109.68388 12969 ft 209 kts 292°
2026-04-23 10:50 -7.89078 109.67016 13146 ft 210 kts 291°
2026-04-23 10:50 -7.88550 109.65640 13325 ft 210 kts 291°
2026-04-23 10:50 -7.88017 109.64265 13519 ft 211 kts 291°
2026-04-23 10:51 -7.87491 109.62899 13708 ft 212 kts 292°
2026-04-23 10:51 -7.86955 109.61516 13863 ft 212 kts 292°
2026-04-23 10:51 -7.86418 109.60126 14024 ft 213 kts 291°
2026-04-23 10:51 -7.85877 109.58733 14184 ft 213 kts 292°
2026-04-23 10:52 -7.85338 109.57337 14332 ft 214 kts 292°
2026-04-23 10:52 -7.84797 109.55936 14481 ft 214 kts 292°
2026-04-23 10:52 -7.84253 109.54532 14628 ft 215 kts 292°
2026-04-23 10:52 -7.83708 109.53123 14766 ft 216 kts 292°
2026-04-23 10:53 -7.83160 109.51710 14905 ft 216 kts 292°
2026-04-23 10:53 -7.82613 109.50295 15042 ft 217 kts 292°
2026-04-23 10:53 -7.82065 109.48877 15171 ft 217 kts 292°
2026-04-23 10:53 -7.81521 109.47468 15301 ft 218 kts 292°
2026-04-23 10:54 -7.80969 109.46045 15422 ft 219 kts 292°
2026-04-23 10:54 -7.80416 109.44615 15577 ft 219 kts 292°
2026-04-23 10:54 -7.79859 109.43179 15725 ft 220 kts 292°
2026-04-23 10:54 -7.79304 109.41744 15878 ft 220 kts 292°
2026-04-23 10:55 -7.78742 109.40298 15949 ft 224 kts 292°
2026-04-23 10:55 -7.78168 109.38815 15981 ft 229 kts 292°
2026-04-23 10:55 -7.77581 109.37302 15998 ft 234 kts 292°
2026-04-23 10:55 -7.76982 109.35755 16001 ft 239 kts 292°
2026-04-23 10:56 -7.76375 109.34186 16004 ft 242 kts 292°
2026-04-23 10:56 -7.75757 109.32590 16007 ft 246 kts 292°
2026-04-23 10:56 -7.75133 109.30978 16007 ft 248 kts 292°
2026-04-23 10:56 -7.74500 109.29346 16007 ft 250 kts 292°
2026-04-23 10:57 -7.73872 109.27723 16009 ft 252 kts 292°
2026-04-23 10:57 -7.73232 109.26072 16007 ft 253 kts 292°
2026-04-23 10:57 -7.72586 109.24411 16007 ft 254 kts 292°
2026-04-23 10:57 -7.71941 109.22749 16008 ft 255 kts 292°
2026-04-23 10:58 -7.71297 109.21086 16009 ft 255 kts 292°
2026-04-23 10:58 -7.70650 109.19419 16013 ft 255 kts 292°
2026-04-23 10:58 -7.70002 109.17752 16013 ft 255 kts 292°
2026-04-23 10:58 -7.69356 109.16084 16011 ft 256 kts 292°
2026-04-23 10:59 -7.68708 109.14413 16014 ft 256 kts 292°
2026-04-23 10:59 -7.68059 109.12742 16012 ft 256 kts 292°
2026-04-23 10:59 -7.67410 109.11069 16010 ft 256 kts 292°
2026-04-23 10:59 -7.66761 109.09397 16014 ft 256 kts 292°
2026-04-23 11:00 -7.66110 109.07723 16010 ft 256 kts 292°
2026-04-23 11:00 -7.65462 109.06047 16013 ft 256 kts 292°
2026-04-23 11:00 -7.64813 109.04374 16016 ft 256 kts 292°
2026-04-23 11:00 -7.64166 109.02721 16014 ft 256 kts 292°
2026-04-23 11:01 -7.63489 109.01056 16019 ft 257 kts 292°
2026-04-23 11:01 -7.62820 108.99386 16020 ft 257 kts 292°
2026-04-23 11:01 -7.62148 108.97719 16020 ft 257 kts 292°
2026-04-23 11:01 -7.61476 108.96050 16018 ft 257 kts 292°
2026-04-23 11:02 -7.60800 108.94378 16021 ft 257 kts 292°
2026-04-23 11:02 -7.60127 108.92711 16022 ft 257 kts 292°
2026-04-23 11:02 -7.59457 108.91042 16022 ft 257 kts 292°
2026-04-23 11:02 -7.58785 108.89371 16021 ft 257 kts 292°
2026-04-23 11:03 -7.58113 108.87702 16022 ft 257 kts 292°
2026-04-23 11:03 -7.57441 108.86033 16021 ft 257 kts 292°
2026-04-23 11:03 -7.56770 108.84366 16021 ft 257 kts 292°
2026-04-23 11:03 -7.56095 108.82695 16020 ft 257 kts 292°
2026-04-23 11:04 -7.55434 108.81049 16020 ft 257 kts 292°
2026-04-23 11:04 -7.54772 108.79378 16020 ft 257 kts 292°
2026-04-23 11:04 -7.54096 108.77711 16022 ft 257 kts 293°
2026-04-23 11:04 -7.53417 108.76047 16023 ft 256 kts 293°
2026-04-23 11:05 -7.52743 108.74379 16023 ft 256 kts 292°
2026-04-23 11:05 -7.52073 108.72710 16025 ft 256 kts 292°
2026-04-23 11:05 -7.51401 108.71043 16025 ft 257 kts 292°
2026-04-23 11:05 -7.50730 108.69377 16021 ft 257 kts 292°
2026-04-23 11:06 -7.49395 108.66064 16023 ft 257 kts 292°
2026-04-23 11:06 -7.48723 108.64397 16024 ft 257 kts 292°
2026-04-23 11:06 -7.48048 108.62726 16024 ft 257 kts 292°
2026-04-23 11:07 -7.47375 108.61057 16026 ft 257 kts 292°
2026-04-23 11:07 -7.46702 108.59389 16027 ft 257 kts 292°
2026-04-23 11:07 -7.46029 108.57721 16029 ft 257 kts 292°
2026-04-23 11:07 -7.45366 108.56077 16031 ft 257 kts 292°
2026-04-23 11:08 -7.44693 108.54408 16035 ft 257 kts 292°
2026-04-23 11:08 -7.44021 108.52744 16035 ft 257 kts 292°
2026-04-23 11:08 -7.43349 108.51080 16037 ft 257 kts 292°
2026-04-23 11:08 -7.42677 108.49413 16038 ft 256 kts 292°
2026-04-23 11:09 -7.42002 108.47746 16037 ft 257 kts 292°
2026-04-23 11:09 -7.41332 108.46083 16042 ft 257 kts 292°
2026-04-23 11:09 -7.40658 108.44416 16039 ft 257 kts 292°
2026-04-23 11:09 -7.39985 108.42748 16042 ft 256 kts 292°
2026-04-23 11:10 -7.39313 108.41082 16042 ft 256 kts 292°
2026-04-23 11:10 -7.38640 108.39418 16043 ft 256 kts 292°
2026-04-23 11:10 -7.37968 108.37754 16046 ft 256 kts 292°
2026-04-23 11:10 -7.37306 108.36110 16049 ft 256 kts 292°
2026-04-23 11:11 -7.36655 108.34434 16049 ft 256 kts 289°
2026-04-23 11:11 -7.36111 108.32719 16051 ft 256 kts 287°
2026-04-23 11:11 -7.35595 108.30998 16052 ft 256 kts 287°
2026-04-23 11:11 -7.35070 108.29281 16054 ft 256 kts 288°
2026-04-23 11:12 -7.34516 108.27574 16057 ft 256 kts 289°
2026-04-23 11:12 -7.33954 108.25869 16060 ft 256 kts 289°
2026-04-23 11:12 -7.33399 108.24185 16057 ft 256 kts 289°
2026-04-23 11:12 -7.32835 108.22483 16063 ft 256 kts 289°
2026-04-23 11:13 -7.32271 108.20778 16066 ft 256 kts 289°
2026-04-23 11:13 -7.31708 108.19072 16064 ft 256 kts 289°
2026-04-23 11:13 -7.31144 108.17368 16066 ft 256 kts 289°
2026-04-23 11:13 -7.30580 108.15663 16071 ft 256 kts 289°
2026-04-23 11:14 -7.30015 108.13955 16074 ft 256 kts 289°
2026-04-23 11:14 -7.29459 108.12274 16073 ft 256 kts 289°
2026-04-23 11:14 -7.28896 108.10575 16076 ft 256 kts 289°
2026-04-23 11:14 -7.28330 108.08872 16077 ft 256 kts 289°
2026-04-23 11:15 -7.27766 108.07170 16081 ft 256 kts 289°
2026-04-23 11:15 -7.27203 108.05468 16080 ft 256 kts 289°
2026-04-23 11:15 -7.26639 108.03768 16078 ft 255 kts 289°
2026-04-23 11:15 -7.26079 108.02071 16088 ft 256 kts 289°
2026-04-23 11:16 -7.25516 108.00371 16076 ft 256 kts 289°
2026-04-23 11:16 -7.24949 107.98660 15988 ft 259 kts 289°
2026-04-23 11:16 -7.24376 107.96927 15944 ft 261 kts 289°
2026-04-23 11:16 -7.23806 107.95206 15921 ft 261 kts 289°
2026-04-23 11:17 -7.23232 107.93472 15914 ft 261 kts 289°
2026-04-23 11:17 -7.22659 107.91737 15905 ft 260 kts 289°
2026-04-23 11:17 -7.22081 107.90007 15902 ft 260 kts 289°
2026-04-23 11:17 -7.21507 107.88280 15900 ft 259 kts 289°
2026-04-23 11:18 -7.20938 107.86563 15904 ft 259 kts 289°
2026-04-23 11:18 -7.20368 107.84844 15904 ft 258 kts 289°
2026-04-23 11:18 -7.19802 107.83133 15902 ft 258 kts 289°
2026-04-23 11:18 -7.19232 107.81420 15904 ft 257 kts 289°
2026-04-23 11:19 -7.18666 107.79711 15902 ft 257 kts 289°
2026-04-23 11:19 -7.18096 107.78003 15903 ft 257 kts 289°
2026-04-23 11:19 -7.17529 107.76293 15904 ft 257 kts 289°
2026-04-23 11:19 -7.16964 107.74584 15902 ft 257 kts 289°
2026-04-23 11:20 -7.16403 107.72896 15905 ft 257 kts 289°
2026-04-23 11:20 -7.15836 107.71183 15905 ft 257 kts 289°
2026-04-23 11:20 -7.15267 107.69472 15902 ft 258 kts 289°
2026-04-23 11:20 -7.14699 107.67761 15899 ft 257 kts 289°
2026-04-23 11:21 -7.14132 107.66051 15902 ft 257 kts 289°
2026-04-23 11:21 -7.13562 107.64340 15903 ft 257 kts 289°
2026-04-23 11:21 -7.13186 107.63211 15907 ft 257 kts 289°
2026-04-23 11:21 -7.12426 107.60921 15906 ft 257 kts 289°
2026-04-23 11:22 -7.12050 107.59788 15905 ft 258 kts 289°
2026-04-23 11:22 -7.11481 107.58078 15904 ft 258 kts 289°
2026-04-23 11:22 -7.10907 107.56350 15731 ft 265 kts 289°
2026-04-23 11:22 -7.10305 107.54548 15360 ft 274 kts 289°
2026-04-23 11:23 -7.09691 107.52747 15001 ft 270 kts 289°
2026-04-23 11:23 -7.09078 107.50964 14641 ft 268 kts 289°
2026-04-23 11:23 -7.08481 107.49219 14301 ft 265 kts 289°
2026-04-23 11:23 -7.07894 107.47465 13956 ft 263 kts 289°
2026-04-23 11:24 -7.07313 107.45726 13600 ft 261 kts 289°
2026-04-23 11:24 -7.06739 107.44000 13221 ft 260 kts 289°
2026-04-23 11:24 -7.06166 107.42281 12845 ft 258 kts 289°
2026-04-23 11:24 -7.05557 107.40588 12478 ft 255 kts 297°
2026-04-23 11:25 -7.04393 107.39263 12121 ft 255 kts 322°
2026-04-23 11:25 -7.02897 107.38294 11760 ft 256 kts 330°
2026-04-23 11:25 -7.01331 107.37443 11404 ft 250 kts 332°
2026-04-23 11:25 -6.99854 107.36659 11069 ft 235 kts 331°
2026-04-23 11:26 -6.98458 107.35881 10756 ft 222 kts 330°
2026-04-23 11:26 -6.97158 107.35120 10467 ft 211 kts 329°
2026-04-23 11:26 -6.95897 107.34379 10176 ft 212 kts 329°
2026-04-23 11:26 -6.94610 107.33623 9891 ft 211 kts 329°
2026-04-23 11:27 -6.93375 107.32900 9591 ft 199 kts 329°
2026-04-23 11:27 -6.92163 107.32186 9277 ft 201 kts 329°
2026-04-23 11:27 -6.90990 107.31496 9003 ft 195 kts 329°
2026-04-23 11:27 -6.89797 107.30842 8696 ft 197 kts 340°
2026-04-23 11:28 -6.88454 107.30873 8390 ft 196 kts 24°
2026-04-23 11:28 -6.87492 107.31830 8092 ft 200 kts 65°
2026-04-23 11:28 -6.86900 107.33037 7788 ft 188 kts 55°
2026-04-23 11:28 -6.86186 107.34164 7491 ft 195 kts 67°
2026-04-23 11:29 -6.85628 107.35416 7196 ft 199 kts 59°
2026-04-23 11:29 -6.84908 107.36616 6888 ft 198 kts 59°
2026-04-23 11:29 -6.84354 107.37827 6601 ft 191 kts 64°
2026-04-23 11:29 -6.83864 107.39024 6309 ft 178 kts 83°
2026-04-23 11:30 -6.84045 107.40231 6027 ft 174 kts 105°
2026-04-23 11:30 -6.84407 107.41376 5748 ft 168 kts 109°
2026-04-23 11:30 -6.84797 107.42454 5474 ft 159 kts 110°
2026-04-23 11:30 -6.85164 107.43464 5220 ft 144 kts 109°
2026-04-23 11:31 -6.85488 107.44357 4993 ft 128 kts 109°
2026-04-23 11:31 -6.85775 107.45159 4826 ft 113 kts 109°
2026-04-23 11:31 -6.86017 107.45863 4633 ft 112 kts 106°
2026-04-23 11:31 -6.86278 107.46636 4553 ft 118 kts 108°
2026-04-23 11:32 -6.86548 107.47420 4341 ft 119 kts 108°
2026-04-23 11:32 -6.86842 107.48192 4183 ft 117 kts 110°
2026-04-23 11:32 -6.87125 107.48955 4050 ft 116 kts 109°
2026-04-23 11:32 -6.87397 107.49739 3907 ft 122 kts 107°
2026-04-23 11:33 -6.87674 107.50525 3715 ft 119 kts 108°
2026-04-23 11:33 -6.87943 107.51306 3586 ft 118 kts 107°
2026-04-23 11:33 -6.88194 107.52100 3429 ft 122 kts 108°
2026-04-23 11:33 -6.88471 107.52893 3290 ft 116 kts 109°
2026-04-23 11:34 -6.88733 107.53673 3102 ft 119 kts 107°
2026-04-23 11:34 -6.88989 107.54469 2928 ft 119 kts 108°
2026-04-23 11:34 -6.89253 107.55250 2749 ft 116 kts 108°
2026-04-23 11:34 -6.89512 107.56004 2583 ft 115 kts 108°
2026-04-23 11:35 -6.89768 107.56757 2434 ft 112 kts 108°
2026-04-23 11:35 -6.89976 107.57366 2409 ft 42 kts 110°
2026-04-23 11:35 -6.90004 107.57444 2412 ft 0 kts 109°
2026-04-23 11:35 -6.90033 107.57534 2416 ft 25 kts 107°
2026-04-23 11:36 -6.90082 107.57678 2423 ft 19 kts 112°
2026-04-23 11:36 -6.90130 107.57725 2413 ft 5 kts 186°
2026-04-23 11:36 -6.90162 107.57703 2410 ft 15 kts 215°
2026-04-23 11:36 -6.90236 107.57676 2409 ft 4 kts 160°
2026-04-23 11:37 -6.90243 107.57701 2412 ft 1 kts 102°
2026-04-23 11:37 -6.90247 107.57704 2412 ft 1 kts 135°